logo meteosardegna

Diretta Meteo Reggio Calabria, Italialunedì 15 luglio ore 10:50

Mappa
Sereno 35 °C Sereno 24 Ore: T.min 26 T.max 35
Ponente Nord Km/h 20.3 Punto di rugiada: 12 °C Umidità: 24% Visibilità: 10 Km
Il sole sorge alle: 05:45 Il sole tramonta alle: 20:21
15 Luglio 2024 10:50 tempo osservato: Sereno Sereno 35 24 1012 vento: Nord N 20.3
15 Luglio 2024 10:20 tempo osservato: Sereno Sereno 34 26 1012 vento: Nord N 22.2
15 Luglio 2024 09:50 tempo osservato: Sereno Sereno 33 27 1012 vento: Nord N 20.3
15 Luglio 2024 09:20 tempo osservato: Sereno Sereno 32 31 1012 vento: Nord N 20.3
15 Luglio 2024 08:50 tempo osservato: Sereno Sereno 31 43 1012 vento: Nord N 18.5
15 Luglio 2024 08:20 tempo osservato: Sereno Sereno 30 48 1012 vento: Nord N 16.7
15 Luglio 2024 07:50 tempo osservato: Sereno Sereno 30 40 1012 vento: Nord N 14.8
15 Luglio 2024 07:20 tempo osservato: Sereno Sereno 29 39 1012 vento: Nord N 14.8
15 Luglio 2024 06:50 tempo osservato: Sereno Sereno 28 37 1012 vento: Nord NE 9.3
15 Luglio 2024 06:20 tempo osservato: Sereno Sereno 27 44 1012 vento: Nord N/NE 9.3
15 Luglio 2024 05:50 tempo osservato: Sereno Sereno 26 47 1011 vento: Nord NE 13
15 Luglio 2024 05:20 tempo osservato: Sereno Sereno 27 65 1011 vento: Nord N/NE 14.8
15 Luglio 2024 04:50 tempo osservato: Sereno Sereno 26 78 1011 vento: Nord N 22.2
15 Luglio 2024 04:20 tempo osservato: Sereno Sereno 26 78 1011 vento: Nord N 22.2
15 Luglio 2024 03:50 tempo osservato: Sereno Sereno 26 78 1011 vento: Nord N 25.9
15 Luglio 2024 03:20 tempo osservato: Sereno Sereno 26 78 1011 vento: Nord N 24
15 Luglio 2024 02:50 tempo osservato: Sereno Sereno 26 73 1011 vento: Nord N 22.2
15 Luglio 2024 02:20 tempo osservato: Sereno Sereno 26 73 1011 vento: Nord N 18.5
15 Luglio 2024 01:50 tempo osservato: Sereno Sereno 26 73 1011 vento: Nord N 18.5
15 Luglio 2024 01:20 tempo osservato: Sereno Sereno 26 78 1012 vento: Nord N 18.5
15 Luglio 2024 00:50 tempo osservato: Sereno Sereno 26 78 1012 vento: Nord N 18.5
15 Luglio 2024 00:20 tempo osservato: Sereno Sereno 26 83 1012 vento: Nord N 20.3
14 Luglio 2024 23:50 tempo osservato: Sereno Sereno 26 83 1012 vento: Nord N 20.3
14 Luglio 2024 23:20 tempo osservato: Sereno Sereno 26 83 1012 vento: Nord N 25.9
14 Luglio 2024 22:50 tempo osservato: Sereno Sereno 27 78 1012 vento: Nord N 24
14 Luglio 2024 22:20 tempo osservato: Sereno Sereno 27 78 1012 vento: Nord N 24
14 Luglio 2024 21:50 tempo osservato: Sereno Sereno 27 78 1012 vento: Nord N 25.9
14 Luglio 2024 21:20 tempo osservato: Sereno Sereno 27 78 1011 vento: Nord N 24
14 Luglio 2024 20:50 tempo osservato: Sereno Sereno 27 78 1011 vento: Nord N 25.9
14 Luglio 2024 20:20 tempo osservato: Sereno Sereno 27 78 1011 vento: Nord N/NO 27.8
14 Luglio 2024 19:50 tempo osservato: Sereno Sereno 28 74 1011 vento: Nord N/NO 27.8
14 Luglio 2024 19:20 tempo osservato: Sereno Sereno 29 58 1011 vento: Nord N/NO 27.8
14 Luglio 2024 18:50 tempo osservato: Sereno Sereno 30 58 1011 vento: Nord N/NO 27.8
14 Luglio 2024 18:20 tempo osservato: Sereno Sereno 30 58 1011 vento: Nord N/NO 31.5
14 Luglio 2024 17:50 tempo osservato: Sereno Sereno 32 35 1010 vento: Nord N 31.5
14 Luglio 2024 17:20 tempo osservato: Sereno Sereno 32 46 1010 vento: Nord N/NO 25.9
14 Luglio 2024 16:50 tempo osservato: Sereno Sereno 31 35 1011 vento: Nord N/NO 27.8
14 Luglio 2024 16:20 tempo osservato: Sereno Sereno 33 31 1011 vento: Nord N/NO 33.3
14 Luglio 2024 15:50 tempo osservato: Poco Nuvoloso Poco Nuvoloso 33 29 1011 vento: Nord N 27.8
14 Luglio 2024 15:20 tempo osservato: Sereno Sereno 33 29 1011 vento: Nord N/NO 31.5
14 Luglio 2024 14:50 tempo osservato: Sereno Sereno 34 32 1011 vento: Nord N 29.6
14 Luglio 2024 14:20 tempo osservato: Sereno Sereno 33 36 1011 vento: Nord N 31.5
14 Luglio 2024 13:50 tempo osservato: Sereno Sereno 35 32 1011 vento: Nord N/NO 25.9
14 Luglio 2024 13:20 tempo osservato: Sereno Sereno 34 34 1011 vento: Nord N 29.6
14 Luglio 2024 12:50 tempo osservato: Sereno Sereno 33 33 1011 vento: Nord N/NO 29.6
14 Luglio 2024 12:20 tempo osservato: Sereno Sereno 33 38 1012 vento: Nord N 25.9
14 Luglio 2024 11:50 tempo osservato: Sereno Sereno 33 41 1012 vento: Nord N 31.5